Wind_Speed
10 10 10 11 12 12 12 12 12 12 12 12 12 12 13 13 13 12 11 11 11 11 10 10 10 10 9 8 7 6 5 4 3 2 2 3 4 5 6 7 8 8 9 9
10 10 11 11 12 12 12 12 12 13 11 11 11 11 11 12 11 12 11 11 11 10 10 10 10 9 9 8 7 7 6 5 3 2 2 2 3 4 5 6 7 8 8 9
10 10 11 11 12 12 12 12 12 13 11 10 11 10 9 10 11 11 11 11 11 11 10 10 10 9 10 9 8 8 7 5 4 3 2 2 2 3 4 5 6 7 7 8
11 11 11 11 11 11 10 10 12 11 10 9 10 10 9 10 10 10 11 11 11 11 11 11 11 10 10 10 9 8 7 6 5 4 3 3 2 2 3 4 5 5 6 7
11 11 10 10 10 10 9 8 8 9 10 9 10 10 10 10 11 11 11 11 11 11 11 10 10 10 10 10 9 8 9 7 6 5 4 3 2 1 2 3 4 4 4 5
11 11 11 10 9 9 9 8 7 8 9 9 9 9 10 10 11 11 10 11 11 10 10 9 9 10 10 9 9 9 9 8 7 6 5 4 3 2 1 1 3 3 3 4
11 11 11 10 9 9 9 9 8 8 8 9 9 10 10 10 10 10 10 10 10 10 9 10 10 10 10 9 9 8 8 9 8 7 6 5 4 3 2 1 1 2 3 3
12 12 12 11 10 9 9 9 7 6 6 8 9 10 10 9 10 10 10 10 9 10 10 10 9 9 9 9 9 9 9 9 9 8 7 6 5 4 3 2 1 1 2 3
13 13 12 11 11 10 10 9 8 7 7 8 8 10 9 9 9 10 10 10 10 10 11 10 9 9 8 9 9 10 10 9 10 9 8 7 6 5 4 2 2 2 2 2
14 13 12 11 12 11 11 11 11 10 9 9 9 9 9 10 10 10 11 11 10 10 10 10 10 9 8 9 10 10 10 10 10 9 9 9 7 6 5 4 3 2 2 2
14 13 12 11 11 11 11 11 11 10 9 9 9 10 10 10 10 10 10 10 10 10 10 11 10 10 9 9 11 10 10 10 10 10 9 9 8 7 6 5 4 3 3 3
14 13 12 11 11 11 11 10 10 10 10 11 10 10 11 11 11 10 11 10 10 11 11 11 11 10 10 10 11 11 10 10 10 10 10 10 9 8 8 7 6 5 5 5
14 13 12 12 11 12 11 11 11 10 10 10 10 10 10 11 11 12 12 11 11 11 12 11 11 11 11 11 11 12 11 11 11 11 11 11 10 10 9 9 8 7 7 7
15 15 13 12 11 11 11 11 11 11 11 10 11 11 11 12 11 12 12 12 12 11 12 12 12 11 11 11 11 12 12 12 11 12 11 12 11 11 10 10 9 9 8 8
17 16 14 13 13 12 12 12 12 12 12 11 11 12 12 13 12 12 12 12 12 12 12 12 13 12 12 11 12 12 13 12 12 12 12 12 12 12 11 11 11 10 10 10
17 17 15 14 14 13 12 12 13 12 13 13 13 13 12 13 13 12 12 12 12 12 12 12 13 13 13 13 13 12 13 13 13 13 13 13 14 13 13 12 13 12 12 12
17 17 16 15 13 13 13 12 12 13 13 13 14 13 13 13 13 13 12 13 12 12 12 12 13 13 13 14 14 14 13 13 13 12 12 14 15 15 15 14 14 15 14 14
18 17 16 15 15 15 12 12 13 13 14 14 14 14 13 12 13 13 12 13 13 13 13 13 13 13 14 14 14 13 14 14 14 13 14 15 15 15 15 15 15 15 15 16
20 19 17 16 15 15 14 13 13 13 13 13 14 14 13 13 12 12 12 12 13 13 13 13 13 13 14 15 15 14 15 14 14 15 15 15 15 15 15 15 16 16 17 17
21 19 19 17 17 16 14 13 13 13 13 13 14 13 12 13 13 12 12 12 12 12 13 13 13 14 14 15 15 16 16 16 16 16 16 16 15 15 16 17 17 17 18 18
22 22 21 20 19 18 16 15 14 13 13 14 14 13 13 13 12 12 12 12 12 12 12 12 12 13 14 15 16 16 17 17 17 17 16 17 17 17 18 18 18 19 19 19
24 24 22 21 22 21 17 16 16 15 14 14 14 14 14 14 13 13 12 12 12 12 13 13 13 13 14 15 16 17 17 18 18 18 18 18 18 18 19 20 20 20 20 20
26 24 24 24 23 21 18 17 16 15 15 15 15 15 16 15 15 14 14 13 13 13 13 14 14 14 15 15 16 16 17 18 18 18 18 19 19 20 20 20 20 20 21 21
27 25 25 25 24 23 20 19 19 17 17 17 17 16 17 17 16 15 15 14 13 13 14 14 15 15 15 16 16 17 17 18 18 19 19 19 20 20 20 21 21 22 22 22
29 28 27 26 25 24 23 22 21 19 19 19 18 18 17 17 17 17 16 15 14 14 14 15 16 17 17 18 18 18 18 19 19 19 19 19 20 21 21 22 22 23 23 24
30 29 28 28 26 25 24 24 23 21 21 20 20 20 19 18 18 18 17 16 16 16 16 17 17 17 17 18 18 19 20 20 20 20 20 20 21 22 22 23 23 23 25 26
Wind_Direction
257 257 259 258 255 257 261 263 261 258 261 257 254 251 249 246 242 239 240 246 246 238 233 233 237 239 239 234 224 226 231 239 247 270 312 356 2 9 17 20 22 21 24 28
258 258 258 258 258 256 256 258 258 257 259 253 246 249 247 245 238 239 242 242 245 240 232 231 232 235 234 227 222 224 228 235 239 253 288 331 354 7 14 21 25 24 26 29
258 256 254 255 255 252 256 255 252 256 251 246 245 246 241 239 236 235 237 241 245 240 234 233 235 236 229 225 223 222 224 229 236 247 273 298 336 357 7 20 27 29 30 33
250 250 251 252 252 251 260 259 253 255 246 245 247 249 243 246 242 236 237 238 243 238 234 235 234 233 232 226 226 224 224 226 233 240 257 275 309 350 2 17 25 26 29 35
251 249 249 252 250 250 252 253 250 250 247 251 247 252 244 244 242 237 237 238 241 236 233 235 234 229 228 226 228 229 226 226 232 239 248 267 266 311 352 15 19 17 23 36
250 251 249 247 247 248 244 246 243 248 255 255 251 255 249 248 242 235 235 237 240 237 233 231 232 227 225 226 228 226 224 226 230 238 243 254 241 257 304 359 16 16 20 26
247 248 247 245 247 244 243 242 242 247 256 258 258 258 254 246 238 237 236 232 232 236 232 229 231 225 221 225 226 224 226 226 228 232 238 246 237 240 258 303 360 18 24 23
247 248 243 243 245 243 238 239 232 236 250 257 257 254 254 248 239 239 234 231 232 234 228 229 231 225 223 229 225 223 228 226 227 228 235 239 237 239 245 263 309 345 359 9
245 248 245 239 237 237 238 241 233 230 230 240 256 255 250 249 243 238 233 230 232 232 231 231 231 227 229 230 225 226 227 227 228 230 232 231 234 238 244 259 282 298 317 343
239 245 243 237 237 235 237 233 227 228 233 236 248 257 251 249 249 235 231 230 229 232 232 233 231 228 234 231 228 231 231 234 233 233 232 227 226 233 246 254 264 278 300 318
232 242 245 238 233 233 232 231 230 232 235 236 241 252 248 245 244 235 234 231 231 235 239 238 233 233 234 234 233 235 231 232 233 233 234 230 229 233 239 248 257 269 285 301
229 235 240 239 231 232 232 234 233 234 238 238 240 245 246 249 242 237 237 236 237 240 247 243 239 233 233 235 232 234 235 233 234 234 235 230 232 237 242 248 256 266 277 287
226 228 231 238 237 235 238 236 236 236 238 244 243 251 252 250 242 237 239 240 243 244 243 240 241 239 234 236 234 233 233 233 234 234 235 234 238 242 246 250 256 265 273 280
224 225 226 235 243 245 241 239 238 236 235 244 244 248 252 244 237 237 239 243 246 243 242 242 240 239 238 239 237 233 233 234 234 237 239 237 241 244 248 252 256 265 274 279
224 225 224 230 239 243 243 240 239 239 237 239 239 242 245 241 241 240 240 246 247 245 245 246 242 240 241 238 236 235 236 235 234 238 242 242 242 245 249 255 257 264 273 277
224 223 224 231 238 241 242 242 240 238 238 238 236 240 244 243 245 246 247 249 249 248 249 249 245 242 239 238 237 240 240 239 237 242 245 247 248 250 254 258 260 263 269 273
226 225 227 232 238 239 241 244 243 237 236 239 238 241 245 245 245 247 249 248 247 246 249 250 246 242 239 239 240 243 243 245 243 248 251 250 251 253 255 260 263 264 267 271
229 230 229 231 234 240 241 240 242 242 240 240 240 243 246 248 246 247 247 247 247 247 248 250 249 244 240 240 241 241 243 247 250 252 256 254 255 256 257 261 265 264 267 271
228 230 229 229 234 239 240 237 240 243 238 239 242 243 243 245 247 250 251 248 247 246 247 248 250 247 244 243 244 243 243 249 254 256 257 259 258 258 259 264 266 267 268 271
232 229 227 230 236 237 239 241 243 244 241 242 243 242 242 243 247 249 252 253 252 250 248 249 250 248 246 246 246 247 250 254 256 258 258 259 260 259 263 265 267 268 270 271
231 230 231 232 236 238 237 240 243 245 244 241 243 242 242 247 253 254 253 256 255 253 251 250 252 253 249 247 246 249 252 254 257 258 260 261 259 260 264 266 267 268 270 271
231 232 233 234 235 239 241 240 240 243 245 244 244 244 246 248 251 253 254 257 257 255 253 252 254 257 256 252 250 252 256 256 257 257 259 259 260 264 265 266 267 268 269 272
231 232 233 235 237 241 243 242 240 241 243 245 246 246 249 248 249 249 251 255 257 257 257 256 256 259 259 256 254 257 259 259 260 261 261 260 261 265 267 267 267 267 269 270
231 233 236 237 237 240 243 244 242 241 243 245 247 249 252 251 250 249 251 252 256 259 258 258 258 259 260 260 257 259 261 263 263 265 263 263 264 267 267 269 270 269 270 272
231 232 234 236 237 240 241 245 245 244 245 248 248 250 253 253 252 251 252 252 257 261 263 263 261 261 260 261 261 261 262 264 265 266 267 268 269 269 269 270 270 269 271 273
231 233 235 237 239 242 243 245 247 247 247 249 249 249 251 252 252 253 252 254 258 263 266 265 264 264 264 264 263 263 263 263 265 265 267 269 270 269 270 270 269 270 272 273
Height
5852 5854 5854 5854 5855 5856 5856 5857 5857 5858 5858 5859 5860 5861 5863 5864 5866 5868 5869 5871 5872 5874 5875 5877 5879 5880 5881 5883 5884 5885 5885 5886 5887 5887 5888 5887 5887 5886 5885 5884 5882 5881 5879 5877
5851 5851 5852 5852 5853 5854 5854 5855 5855 5856 5857 5857 5858 5859 5861 5862 5863 5865 5867 5869 5870 5872 5874 5876 5877 5878 5880 5881 5882 5883 5885 5886 5887 5887 5887 5887 5887 5886 5885 5884 5883 5882 5880 5879
5849 5850 5850 5850 5851 5852 5852 5853 5853 5854 5855 5855 5857 5858 5859 5860 5862 5863 5865 5867 5869 5871 5873 5874 5875 5877 5878 5879 5881 5882 5884 5885 5886 5887 5887 5887 5887 5887 5886 5885 5884 5883 5882 5880
5846 5847 5848 5848 5849 5849 5850 5851 5852 5852 5853 5854 5856 5857 5858 5859 5860 5862 5863 5865 5867 5869 5871 5873 5874 5875 5877 5878 5879 5881 5883 5884 5885 5886 5887 5887 5887 5887 5886 5886 5885 5884 5883 5882
5844 5845 5846 5846 5847 5848 5848 5849 5850 5850 5851 5853 5854 5855 5857 5857 5858 5860 5862 5863 5865 5867 5869 5871 5872 5874 5875 5877 5878 5880 5881 5883 5884 5885 5886 5886 5886 5887 5886 5886 5885 5885 5884 5883
5843 5843 5844 5845 5845 5846 5847 5848 5849 5849 5850 5852 5852 5853 5855 5856 5857 5859 5860 5862 5863 5865 5867 5869 5870 5872 5874 5875 5877 5878 5880 5881 5883 5884 5885 5886 5886 5886 5887 5886 5886 5885 5885 5884
5841 5842 5842 5843 5844 5845 5846 5848 5848 5848 5849 5851 5851 5852 5854 5854 5856 5857 5859 5860 5861 5863 5865 5867 5869 5871 5872 5874 5875 5877 5878 5880 5881 5883 5884 5885 5885 5886 5886 5886 5886 5886 5886 5886
5838 5840 5841 5842 5843 5844 5845 5846 5848 5848 5849 5850 5850 5851 5853 5853 5855 5856 5857 5859 5860 5862 5864 5866 5867 5869 5871 5872 5873 5875 5877 5878 5880 5881 5883 5884 5885 5885 5886 5886 5886 5886 5886 5886
5836 5838 5839 5840 5841 5842 5843 5844 5845 5846 5847 5848 5849 5850 5851 5852 5853 5855 5856 5858 5859 5861 5863 5864 5866 5868 5869 5870 5872 5874 5875 5877 5878 5880 5881 5882 5884 5884 5885 5886 5886 5886 5886 5886
5834 5835 5836 5837 5839 5840 5842 5842 5844 5845 5846 5846 5848 5848 5850 5851 5852 5853 5854 5856 5858 5860 5861 5863 5864 5866 5867 5869 5871 5872 5874 5875 5877 5878 5880 5881 5882 5884 5884 5885 5886 5886 5886 5886
5831 5833 5834 5836 5837 5839 5840 5841 5842 5843 5844 5845 5846 5849 5848 5849 5850 5851 5853 5854 5856 5858 5860 5861 5863 5864 5865 5867 5869 5870 5872 5874 5875 5876 5878 5880 5881 5882 5883 5884 5885 5885 5885 5885
5829 5830 5832 5834 5835 5836 5837 5839 5840 5842 5842 5843 5844 5848 5845 5847 5848 5849 5851 5853 5854 5856 5858 5859 5861 5862 5863 5865 5867 5869 5870 5872 5873 5874 5876 5878 5879 5881 5882 5883 5884 5884 5884 5884
5826 5828 5830 5831 5835 5835 5836 5837 5838 5839 5840 5841 5842 5846 5844 5844 5846 5847 5849 5851 5852 5854 5855 5857 5859 5860 5861 5863 5864 5866 5868 5870 5871 5873 5874 5876 5877 5879 5880 5881 5882 5882 5883 5883
5823 5826 5828 5830 5831 5832 5833 5835 5836 5837 5838 5840 5841 5842 5842 5842 5844 5846 5847 5848 5850 5851 5853 5854 5856 5857 5859 5861 5862 5864 5866 5867 5869 5870 5872 5874 5875 5877 5878 5879 5880 5880 5881 5881
5820 5823 5825 5827 5828 5830 5831 5832 5834 5835 5836 5838 5839 5840 5840 5841 5842 5843 5845 5846 5847 5849 5850 5852 5853 5855 5856 5858 5860 5862 5863 5865 5866 5868 5869 5871 5873 5874 5875 5876 5877 5878 5878 5878
5817 5820 5822 5824 5825 5827 5828 5830 5831 5833 5834 5835 5836 5837 5838 5839 5840 5841 5842 5844 5845 5846 5847 5849 5850 5852 5853 5855 5857 5859 5860 5862 5864 5865 5867 5868 5869 5871 5872 5873 5874 5874 5875 5875
5814 5817 5819 5821 5822 5824 5826 5827 5828 5830 5831 5833 5834 5836 5835 5837 5838 5839 5840 5841 5842 5843 5845 5846 5847 5849 5850 5852 5854 5856 5857 5859 5860 5862 5863 5864 5866 5867 5868 5869 5870 5871 5871 5871
5811 5813 5815 5817 5820 5822 5825 5825 5826 5827 5828 5830 5831 5832 5833 5834 5835 5836 5837 5838 5839 5840 5842 5843 5844 5846 5847 5849 5850 5852 5854 5855 5857 5858 5860 5861 5862 5863 5864 5865 5866 5866 5867 5867
5807 5810 5812 5814 5816 5819 5821 5822 5823 5825 5826 5827 5828 5829 5830 5831 5832 5833 5834 5835 5836 5837 5839 5840 5841 5842 5844 5845 5847 5849 5850 5852 5853 5855 5856 5857 5858 5859 5860 5861 5861 5862 5862 5863
5803 5805 5808 5811 5813 5815 5819 5819 5820 5823 5823 5824 5825 5827 5828 5829 5830 5831 5832 5832 5833 5834 5835 5837 5838 5839 5841 5842 5844 5845 5847 5848 5850 5851 5852 5853 5854 5855 5855 5856 5857 5857 5858 5858
5799 5802 5804 5807 5809 5811 5814 5816 5818 5820 5821 5821 5822 5824 5825 5826 5827 5828 5829 5829 5830 5832 5833 5834 5835 5836 5837 5839 5840 5842 5843 5844 5845 5846 5847 5848 5849 5850 5851 5851 5852 5852 5852 5852
5795 5797 5800 5803 5805 5809 5811 5812 5815 5816 5817 5818 5819 5821 5822 5823 5824 5825 5826 5826 5827 5828 5829 5831 5832 5833 5834 5835 5836 5837 5838 5840 5840 5841 5842 5843 5844 5845 5846 5846 5846 5846 5847 5847
5789 5793 5796 5799 5802 5804 5806 5808 5810 5811 5813 5814 5816 5817 5818 5819 5821 5822 5823 5823 5824 5825 5826 5827 5828 5829 5830 5831 5832 5833 5834 5834 5835 5836 5837 5838 5839 5839 5840 5840 5840 5841 5841 5841
5784 5788 5791 5793 5796 5799 5801 5803 5805 5807 5809 5811 5812 5813 5814 5816 5817 5818 5819 5820 5821 5822 5822 5823 5824 5825 5826 5826 5827 5828 5828 5829 5830 5831 5831 5832 5833 5833 5834 5834 5834 5834 5835 5835
5778 5782 5784 5787 5791 5794 5797 5798 5801 5803 5805 5806 5808 5809 5810 5811 5812 5814 5815 5816 5817 5817 5818 5819 5819 5820 5821 5821 5822 5822 5823 5824 5824 5825 5826 5826 5827 5827 5828 5828 5828 5828 5828 5828
5772 5775 5779 5782 5786 5789 5791 5793 5796 5798 5800 5801 5803 5805 5806 5807 5808 5809 5810 5811 5812 5813 5813 5814 5814 5815 5816 5816 5817 5817 5818 5818 5819 5819 5820 5821 5821 5821 5821 5821 5821 5821 5821 5821